Theta_e
354 356 356 355 357 353 349 347 347 348 350 351 350 350 350 349 351 352 353 355 355 357 356 360 360 361 359 360 359 360 360 360 358 357 354 353 352 354 356 356 355 355 357
356 356 357 355 353 349 349 348 351 351 352 350 349 352 351 349 349 352 353 352 356 357 358 359 360 362 361 359 361 359 361 361 359 360 360 359 356 354 354 354 356 356 356
358 359 358 358 358 359 355 348 347 353 353 353 349 354 351 351 353 349 349 350 354 357 358 358 358 361 363 360 362 362 360 360 361 361 361 361 361 359 358 359 358 359 358
361 360 358 357 359 358 356 353 352 351 351 351 352 351 349 351 350 353 353 350 350 352 357 360 361 361 362 359 358 362 363 361 361 361 361 361 361 361 361 360 360 360 360
361 359 358 357 358 354 354 355 353 353 349 347 350 351 352 353 352 351 352 355 351 351 353 356 358 360 359 359 361 360 361 361 361 360 361 361 361 360 360 359 359 359 359
360 356 357 361 361 353 354 354 352 353 350 351 350 349 350 352 355 355 351 353 351 352 351 355 356 354 359 361 361 361 362 361 361 361 360 361 361 360 359 358 359 359 359
358 361 359 360 360 355 355 354 354 354 354 355 349 348 349 354 354 354 356 352 353 354 355 354 355 355 354 358 358 359 362 362 361 361 361 360 360 360 359 358 358 358 358
360 357 359 358 360 358 357 356 354 352 353 354 347 346 339 344 351 355 355 354 352 355 353 354 354 356 355 354 357 359 359 360 362 361 359 359 360 360 359 358 358 358 358
358 359 359 359 358 358 354 355 354 352 347 352 348 342 340 334 340 347 350 355 354 353 354 353 355 356 357 355 356 357 357 356 359 361 360 359 357 357 358 358 357 357 357
357 359 359 357 356 354 352 352 354 353 352 344 348 348 348 346 336 334 348 355 354 353 354 352 351 353 356 356 356 356 357 357 357 358 359 360 358 358 359 359 359 357 356
358 357 356 354 354 351 352 352 350 350 350 345 343 345 346 346 350 338 333 343 354 357 357 354 351 353 356 354 355 357 356 356 356 356 357 358 359 359 360 360 360 359 359
350 352 351 352 351 350 350 343 345 346 346 347 345 347 344 342 341 342 338 339 338 348 354 350 351 351 355 356 357 357 356 355 355 354 354 355 357 359 361 362 361 362 361
343 348 349 348 347 352 345 343 341 340 339 341 343 340 344 346 347 346 346 344 342 347 349 349 349 351 351 352 354 355 355 353 352 351 351 352 353 354 356 358 360 362 361
346 350 349 349 349 350 343 343 340 337 340 340 341 341 342 341 344 347 344 340 335 343 345 342 353 355 360 359 355 354 354 349 349 348 346 347 349 351 352 353 354 356 357
349 350 348 348 350 348 343 343 340 339 340 339 339 339 339 340 342 343 344 345 338 332 334 346 346 353 358 357 356 355 353 351 347 346 344 344 345 347 349 350 350 351 351
353 351 349 348 349 349 343 343 342 341 340 337 335 339 338 336 338 340 339 341 343 337 332 339 342 348 351 355 354 355 354 349 347 345 343 343 343 344 345 347 348 348 348
353 350 350 350 349 349 345 343 341 341 338 336 337 335 334 335 332 332 334 335 335 335 334 335 339 348 350 350 351 352 354 356 356 344 344 343 341 342 343 344 344 344 346
351 350 350 348 345 344 343 340 339 338 334 331 332 334 332 330 331 331 329 330 329 331 330 329 334 335 344 349 350 350 349 348 350 346 342 341 340 339 339 339 339 339 339
350 348 344 341 340 339 338 335 332 330 328 326 326 328 327 327 325 325 326 325 325 325 328 327 328 334 338 342 343 346 347 345 341 339 337 339 339 338 337 335 334 333 333
343 337 336 334 333 330 327 326 324 323 322 321 320 322 324 321 321 322 322 323 323 322 323 322 324 327 330 335 335 335 336 338 336 338 339 338 339 339 337 334 333 333 328
334 331 328 326 325 325 321 320 319 318 318 318 319 319 320 318 317 318 319 320 321 318 319 319 319 320 322 323 324 327 327 330 333 335 339 341 343 339 342 339 342 337 332
327 326 324 323 322 318 315 314 315 316 317 317 316 317 317 316 317 316 315 316 317 316 314 313 313 313 316 320 325 324 322 322 322 332 333 329 334 335 340 345 341 338 332
324 322 320 320 319 317 314 313 313 316 315 315 315 315 313 314 316 316 314 314 314 313 314 316 314 316 316 319 318 317 321 324 324 327 328 324 329 329 336 343 335 335 332
322 319 317 317 318 315 312 312 313 315 315 315 315 315 314 314 313 313 313 313 313 314 313 313 313 315 316 317 318 316 319 321 322 324 333 326 331 330 333 336 334 334 331
319 317 316 317 316 315 311 310 315 314 313 314 314 314 314 313 309 310 313 312 312 312 313 312 311 311 311 313 314 316 312 311 312 319 328 328 330 333 335 338 341 333 329
318 314 314 316 313 315 310 310 314 313 313 312 314 314 308 310 307 307 312 311 309 310 311 312 313 313 314 314 312 314 312 309 310 311 325 322 324 326 326 332 337 345 350
Wind_Speed
6 5 3 5 4 1 2 2 4 8 7 8 8 9 5 4 11 7 7 13 14 15 15 18 17 16 15 14 14 14 15 15 15 14 13 11 10 10 10 9 9 9 10
6 6 6 4 4 3 3 4 6 7 8 7 8 10 10 7 10 10 8 9 14 16 17 17 19 18 18 16 14 15 14 15 16 16 14 13 13 13 11 10 10 10 10
8 7 6 6 6 5 7 4 5 8 8 7 8 11 8 8 11 8 8 8 10 17 19 17 19 18 18 18 16 16 17 16 16 17 16 16 15 16 15 13 12 11 11
7 7 6 5 5 5 5 5 5 5 6 7 7 5 5 8 8 12 9 8 8 11 14 20 19 19 20 21 20 19 18 18 18 17 18 17 17 17 17 16 15 13 13
5 6 5 4 4 4 4 4 4 5 4 4 6 7 8 10 12 11 12 13 13 12 10 13 20 20 23 24 22 20 19 20 20 20 19 19 18 18 17 17 17 16 15
5 4 3 2 1 2 3 3 5 3 5 5 5 7 8 9 9 11 10 12 11 14 13 13 11 14 22 23 22 21 21 22 22 21 20 20 19 19 18 18 18 18 18
4 4 1 0 1 2 3 4 3 4 3 3 4 5 7 9 11 10 10 9 12 14 14 13 10 10 11 23 23 23 23 24 23 23 22 22 21 21 20 20 19 19 19
5 3 1 1 1 2 3 3 4 3 2 2 4 6 5 3 3 6 9 10 12 12 11 12 11 13 12 11 15 23 24 25 25 24 24 24 23 22 22 21 20 21 21
4 3 2 2 1 1 2 3 3 4 4 2 3 3 3 2 6 6 8 8 9 7 7 10 13 14 13 10 14 14 20 24 26 25 24 23 24 24 23 23 23 23 22
4 3 4 3 3 3 4 4 4 3 3 4 4 3 6 6 3 3 4 2 5 7 9 6 7 11 13 11 14 16 15 18 22 24 25 23 24 23 24 24 24 24 23
3 5 4 3 2 3 3 4 6 5 3 2 3 3 6 6 5 3 3 3 2 3 4 4 4 7 10 9 10 12 16 19 17 19 23 24 24 24 25 25 26 25 26
4 4 4 3 3 3 4 4 4 5 5 4 5 5 5 4 5 4 2 3 4 3 4 3 4 4 5 6 10 12 15 18 18 16 16 19 22 24 24 26 26 26 27
4 4 2 2 3 3 4 4 5 5 5 4 5 5 5 5 5 5 5 5 3 1 2 3 5 5 5 5 6 12 14 15 15 15 15 15 19 19 20 24 27 26 27
5 4 3 2 3 3 3 4 4 5 5 5 6 6 5 5 5 6 5 4 5 2 0 4 2 5 5 5 8 13 9 12 14 14 13 12 13 16 12 14 20 23 24
5 4 3 3 2 2 3 3 4 5 5 6 6 7 5 5 5 6 5 4 3 3 5 2 3 3 5 6 8 8 7 10 10 10 10 10 13 16 15 18 16 17 17
5 5 3 1 2 2 1 2 2 5 5 5 5 7 7 7 6 6 6 5 4 2 4 6 6 8 8 6 6 8 10 10 10 11 12 12 13 14 14 13 16 17 20
5 4 2 1 2 2 1 3 4 5 6 6 6 7 8 8 7 7 7 6 6 6 6 5 7 9 9 9 8 7 7 7 7 12 14 14 14 14 15 15 16 18 20
4 4 4 4 5 5 5 5 6 6 6 7 8 8 9 8 9 8 7 8 7 7 6 9 8 8 10 10 9 10 6 5 6 6 9 11 13 15 17 19 20 20 20
5 6 6 6 6 6 6 6 6 6 6 7 8 8 8 10 10 9 9 9 8 7 7 8 9 7 8 8 10 8 7 8 6 8 10 13 15 15 16 17 18 19 20
7 8 7 7 7 7 6 6 6 5 5 6 7 7 8 8 10 10 8 9 9 9 8 8 8 8 8 9 9 9 9 9 9 10 9 10 9 9 13 16 19 20 20
9 8 8 7 6 6 6 5 6 6 6 7 8 8 8 11 12 12 9 10 10 9 9 9 9 8 9 10 11 10 11 11 11 10 8 8 6 8 9 12 14 18 20
9 9 8 6 6 5 8 9 6 6 6 7 8 8 6 10 11 12 14 12 10 10 8 6 6 8 9 10 10 10 11 11 11 9 10 12 11 11 10 9 9 13 17
8 9 7 7 7 8 8 9 8 7 8 8 9 9 9 9 12 11 13 12 11 10 10 10 10 11 11 10 9 8 11 12 12 10 13 14 11 13 11 10 14 14 15
9 7 7 7 8 8 9 9 10 9 8 9 9 10 10 10 12 13 11 12 12 12 12 10 11 12 12 13 11 9 12 9 8 8 10 14 11 13 12 12 11 14 15
8 7 7 8 8 8 8 9 6 8 8 9 7 8 9 9 14 15 11 12 12 12 10 16 15 13 12 13 12 8 7 8 9 9 7 11 11 11 12 13 11 10 12
8 6 8 8 7 8 8 9 4 5 6 5 5 5 6 8 10 9 8 9 11 11 11 12 11 12 14 12 12 9 8 9 8 7 9 10 13 13 10 11 9 8 5
Wind_Direction
258 257 229 266 262 214 227 265 279 283 276 266 264 265 246 241 273 256 255 241 244 244 243 234 227 223 224 220 220 218 212 210 205 202 197 191 189 195 190 192 195 195 187
268 265 267 246 263 206 211 209 260 275 274 268 269 264 256 213 240 249 255 246 230 236 242 238 225 225 222 224 224 221 220 213 211 208 207 202 194 196 204 205 204 203 200
260 271 271 273 269 251 237 215 233 258 262 260 261 269 264 242 247 227 234 254 247 228 234 236 227 225 224 227 228 225 217 226 219 213 210 209 208 204 209 216 217 215 211
266 266 271 278 278 266 249 243 240 258 255 261 268 253 227 248 237 240 236 222 231 251 222 230 222 221 224 226 230 234 230 220 223 218 214 210 213 215 212 213 216 217 215
261 249 260 283 280 259 252 237 237 244 255 247 258 259 249 246 244 249 233 237 228 237 240 223 221 218 224 229 231 234 234 234 226 221 218 212 214 216 217 215 213 213 215
230 238 262 308 268 213 200 223 247 233 249 263 269 273 263 255 251 243 239 237 225 229 233 234 223 222 223 227 233 230 226 229 231 225 222 218 212 215 215 217 217 213 211
199 239 245 97 137 192 244 256 290 250 272 270 286 278 269 247 252 251 240 234 241 228 231 233 227 232 216 224 231 231 225 222 225 229 223 222 216 216 215 216 218 219 219
182 197 271 122 51 316 291 295 278 305 269 289 303 295 291 293 281 297 255 240 226 237 225 231 234 232 236 236 228 223 224 221 222 224 225 222 220 217 216 216 215 217 221
173 161 96 94 55 348 351 327 303 307 315 301 256 280 310 278 314 278 259 232 240 226 230 232 234 238 233 231 241 236 229 226 224 225 228 225 224 223 221 218 217 217 217
159 136 102 76 49 30 26 345 313 300 313 314 309 275 282 288 313 300 306 238 228 231 217 229 243 241 240 235 234 243 239 226 230 230 232 230 228 223 223 221 220 219 220
127 108 97 82 45 26 26 23 11 10 350 321 311 309 300 309 315 291 296 324 290 227 245 227 229 243 237 235 247 244 233 239 234 231 233 233 235 229 226 224 223 223 220
120 102 106 84 47 36 53 36 23 22 5 358 340 328 329 318 324 336 297 277 257 282 257 229 234 225 250 249 253 253 241 239 240 241 238 238 228 233 229 229 229 227 227
139 124 90 62 67 69 65 48 51 39 20 11 1 345 333 331 325 315 324 334 320 286 307 219 236 236 239 235 253 262 245 234 231 234 237 236 231 232 234 238 235 228 232
144 141 110 68 45 93 75 57 56 33 26 17 10 2 337 354 346 333 325 339 326 321 225 257 260 237 256 257 245 254 246 236 230 231 227 231 241 236 223 251 239 236 234
148 153 142 106 50 116 75 65 51 31 20 10 9 4 351 357 353 351 344 358 331 329 324 9 333 342 301 280 265 262 238 247 232 235 237 231 242 241 229 235 236 222 232
166 165 156 124 49 75 51 355 26 40 24 16 4 7 7 8 2 358 353 354 355 317 297 329 323 323 327 312 303 286 258 253 237 237 230 232 232 233 234 229 230 228 232
154 149 143 77 49 24 51 14 17 17 20 22 22 22 21 14 7 2 357 358 356 347 306 310 314 322 317 325 329 323 308 291 267 227 233 231 230 213 221 221 226 234 233
132 135 123 89 64 62 50 35 19 21 23 19 16 12 16 6 2 4 350 355 356 347 329 313 320 318 312 321 324 320 323 318 312 291 230 237 236 227 224 230 235 234 232
128 101 93 82 70 63 62 52 44 37 33 24 14 13 12 8 360 352 345 343 340 332 323 314 313 306 315 326 328 319 332 326 316 316 267 239 235 233 235 232 230 228 230
108 96 79 74 69 65 58 60 50 38 38 41 29 19 26 9 1 350 344 349 346 328 327 312 312 315 321 332 317 321 317 317 322 318 299 266 284 263 242 237 236 232 232
104 103 98 84 73 56 40 47 55 43 41 43 38 22 35 14 7 359 344 352 351 349 341 337 326 329 331 332 325 327 305 314 306 299 296 294 313 299 285 233 249 237 234
116 107 94 89 78 65 58 65 75 74 57 47 42 36 26 28 9 8 1 0 358 348 349 336 323 324 328 326 329 323 308 305 305 310 319 301 294 288 281 274 254 230 223
121 106 99 88 78 75 57 66 67 67 65 57 50 40 33 31 18 13 9 11 17 12 1 329 330 327 324 322 324 304 306 307 297 308 300 293 296 286 281 269 241 237 231
113 97 90 91 95 77 72 81 91 84 72 60 46 37 30 21 18 7 12 15 14 12 5 349 336 324 323 326 321 322 303 281 272 271 290 289 296 290 290 282 253 242 237
123 117 117 117 114 98 76 74 85 86 77 65 53 40 26 26 9 5 8 7 4 4 352 354 347 343 335 329 338 329 341 334 321 313 269 278 296 312 309 295 280 244 241
127 126 118 115 117 111 71 66 63 91 82 76 74 49 51 9 357 357 357 357 356 356 349 347 355 353 352 352 345 349 334 323 317 305 347 334 310 311 304 298 291 308 283